Photometre #847[NE_1.6_Dp] Glasgow_MO AOT

File : 20210608_847.hum

08/06/2021,04:57:05,TEMP=12.1,BA=5.68,STAT.A,ExtBa=12.10
08/06/2021,05:02:15,TEMP=12.2,BA=5.68,STAT.A,ExtBa=12.10
08/06/2021,05:08:14,TEMP=12.3,BA=5.68,STAT.A,ExtBa=12.10
08/06/2021,05:15:14,TEMP=12.5,BA=5.64,STAT.A,ExtBa=12.10
08/06/2021,05:23:34,TEMP=12.7,BA=5.68,STAT.A,ExtBa=12.10
08/06/2021,05:33:39,TEMP=13.0,BA=5.68,STAT.A,ExtBa=12.10
08/06/2021,05:46:08,TEMP=13.4,BA=5.68,STAT.B,ExtBa=12.10
08/06/2021,05:52:00,TEMP=13.6,BA=5.68,STAT.A,ExtBa=12.10
08/06/2021,05:58:31,TEMP=13.6,BA=5.68,STAT.A,ExtBa=12.10
08/06/2021,06:05:47,TEMP=13.6,BA=5.60,STAT.A,ExtBa=12.10
08/06/2021,06:13:56,TEMP=13.6,BA=5.68,STAT.A,ExtBa=12.10
08/06/2021,06:23:10,TEMP=13.7,BA=5.68,STAT.C,ExtBa=12.10
08/06/2021,06:33:44,TEMP=13.5,BA=5.68,STAT.A,ExtBa=12.10
08/06/2021,06:45:59,TEMP=13.4,BA=5.68,STAT.A,ExtBa=12.10
08/06/2021,07:00:21,TEMP=13.3,BA=5.68,STAT.A,ExtBa=12.10
08/06/2021,07:12:24,TEMP=13.6,BA=5.68,STAT.D,ExtBa=12.10
08/06/2021,07:17:36,TEMP=13.7,BA=5.68,STAT.A,ExtBa=12.10
08/06/2021,07:32:24,TEMP=14.3,BA=5.68,STAT.D,ExtBa=12.10
08/06/2021,07:38:46,TEMP=14.7,BA=5.68,STAT.B,ExtBa=12.10
08/06/2021,07:52:24,TEMP=15.0,BA=5.68,STAT.D,ExtBa=12.10
08/06/2021,08:04:24,TEMP=15.4,BA=5.68,STAT.D,ExtBa=12.10
08/06/2021,08:16:24,TEMP=16.2,BA=5.68,STAT.D,ExtBa=12.10
08/06/2021,08:22:16,TEMP=16.3,BA=5.68,STAT.B,ExtBa=12.10
08/06/2021,08:32:25,TEMP=16.3,BA=5.68,STAT.D,ExtBa=12.10
08/06/2021,08:44:24,TEMP=16.4,BA=5.68,STAT.D,ExtBa=12.10
08/06/2021,08:47:25,TEMP=16.7,BA=5.68,STAT.D,ExtBa=12.10
08/06/2021,09:00:24,TEMP=16.8,BA=5.68,STAT.D,ExtBa=12.10
08/06/2021,09:02:27,TEMP=17.3,BA=5.68,STAT.D,ExtBa=12.00
08/06/2021,09:16:25,TEMP=17.4,BA=5.68,STAT.D,ExtBa=12.00
08/06/2021,09:18:26,TEMP=17.9,BA=5.68,STAT.F,ExtBa=12.00
08/06/2021,09:32:25,TEMP=17.5,BA=5.68,STAT.D,ExtBa=12.10
08/06/2021,09:34:25,TEMP=17.9,BA=5.68,STAT.D,ExtBa=12.00
08/06/2021,09:47:26,TEMP=17.7,BA=5.68,STAT.D,ExtBa=12.00
08/06/2021,10:00:25,TEMP=18.1,BA=5.68,STAT.D,ExtBa=12.10
08/06/2021,10:02:38,TEMP=18.6,BA=5.68,STAT.D,ExtBa=12.00
08/06/2021,10:16:25,TEMP=18.1,BA=5.68,STAT.D,ExtBa=12.00
08/06/2021,10:18:31,TEMP=18.6,BA=5.68,STAT.F,ExtBa=12.00
08/06/2021,10:34:36,TEMP=20.0,BA=5.56,STAT.D,ExtBa=11.90
08/06/2021,10:47:26,TEMP=19.1,BA=5.68,STAT.D,ExtBa=12.00
08/06/2021,10:52:25,TEMP=19.2,BA=5.64,STAT.D,ExtBa=12.00
08/06/2021,11:02:26,TEMP=18.9,BA=5.68,STAT.D,ExtBa=12.00
08/06/2021,11:16:25,TEMP=19.3,BA=5.68,STAT.D,ExtBa=12.00
08/06/2021,11:18:35,TEMP=20.0,BA=5.68,STAT.F,ExtBa=12.00
08/06/2021,11:35:15,TEMP=21.0,BA=5.56,STAT.D,ExtBa=11.90
08/06/2021,11:47:26,TEMP=21.0,BA=5.64,STAT.D,ExtBa=12.00
08/06/2021,11:52:25,TEMP=20.8,BA=5.60,STAT.D,ExtBa=12.00
08/06/2021,11:56:25,TEMP=20.8,BA=5.60,STAT.D,ExtBa=12.00
08/06/2021,12:00:25,TEMP=20.9,BA=5.64,STAT.D,ExtBa=12.00
08/06/2021,12:02:26,TEMP=21.2,BA=5.64,STAT.D,ExtBa=11.90
08/06/2021,12:08:25,TEMP=20.3,BA=5.64,STAT.D,ExtBa=12.00
08/06/2021,12:17:28,TEMP=19.9,BA=5.56,STAT.F,ExtBa=12.00
08/06/2021,12:28:25,TEMP=19.9,BA=5.64,STAT.D,ExtBa=12.00
08/06/2021,12:32:26,TEMP=20.0,BA=5.60,STAT.D,ExtBa=12.00
08/06/2021,12:44:25,TEMP=19.4,BA=5.64,STAT.D,ExtBa=12.00
08/06/2021,12:47:26,TEMP=19.5,BA=5.64,STAT.D,ExtBa=12.00
08/06/2021,13:00:25,TEMP=19.7,BA=5.64,STAT.D,ExtBa=12.00
08/06/2021,13:02:32,TEMP=20.2,BA=5.64,STAT.D,ExtBa=11.90
08/06/2021,13:08:25,TEMP=20.0,BA=5.64,STAT.D,ExtBa=12.00
08/06/2021,13:17:28,TEMP=19.7,BA=5.56,STAT.F,ExtBa=12.00
08/06/2021,13:28:25,TEMP=19.7,BA=5.64,STAT.D,ExtBa=12.00
08/06/2021,13:32:26,TEMP=19.8,BA=5.56,STAT.D,ExtBa=12.00
08/06/2021,13:44:25,TEMP=19.7,BA=5.64,STAT.D,ExtBa=12.00
08/06/2021,13:47:26,TEMP=20.0,BA=5.64,STAT.D,ExtBa=12.00
08/06/2021,14:00:25,TEMP=20.1,BA=5.64,STAT.D,ExtBa=12.00
08/06/2021,14:02:27,TEMP=20.5,BA=5.64,STAT.D,ExtBa=12.00
08/06/2021,14:16:25,TEMP=20.1,BA=5.64,STAT.D,ExtBa=12.00
08/06/2021,14:18:26,TEMP=20.5,BA=5.64,STAT.F,ExtBa=12.00
08/06/2021,14:32:25,TEMP=19.8,BA=5.64,STAT.D,ExtBa=12.00
08/06/2021,14:34:29,TEMP=20.4,BA=5.64,STAT.D,ExtBa=12.00
08/06/2021,14:47:26,TEMP=20.0,BA=5.56,STAT.D,ExtBa=12.00
08/06/2021,14:52:25,TEMP=20.1,BA=5.60,STAT.D,ExtBa=12.00
08/06/2021,14:56:25,TEMP=20.5,BA=5.60,STAT.D,ExtBa=12.00
08/06/2021,15:00:25,TEMP=20.5,BA=5.64,STAT.D,ExtBa=12.00
08/06/2021,15:02:29,TEMP=20.8,BA=5.64,STAT.D,ExtBa=11.90
08/06/2021,15:16:25,TEMP=19.7,BA=5.64,STAT.D,ExtBa=12.00
08/06/2021,15:18:29,TEMP=20.2,BA=5.64,STAT.F,ExtBa=12.00
08/06/2021,15:32:25,TEMP=19.4,BA=5.64,STAT.D,ExtBa=12.00
08/06/2021,15:34:31,TEMP=19.7,BA=5.64,STAT.D,ExtBa=12.00
08/06/2021,15:47:25,TEMP=19.0,BA=5.56,STAT.D,ExtBa=12.00
08/06/2021,16:00:24,TEMP=19.4,BA=5.64,STAT.D,ExtBa=12.00
08/06/2021,16:02:25,TEMP=19.8,BA=5.64,STAT.D,ExtBa=12.00
08/06/2021,16:12:38,TEMP=19.2,BA=5.64,STAT.B,ExtBa=12.00
08/06/2021,16:24:24,TEMP=18.8,BA=5.64,STAT.D,ExtBa=12.00
08/06/2021,16:36:24,TEMP=18.6,BA=5.64,STAT.D,ExtBa=12.00
08/06/2021,16:48:24,TEMP=18.1,BA=5.64,STAT.D,ExtBa=12.00
08/06/2021,16:56:08,TEMP=17.8,BA=5.56,STAT.B,ExtBa=12.00
08/06/2021,17:08:24,TEMP=17.1,BA=5.64,STAT.D,ExtBa=12.00
08/06/2021,17:17:16,TEMP=16.8,BA=5.60,STAT.A,ExtBa=12.00
08/06/2021,17:28:24,TEMP=16.7,BA=5.60,STAT.D,ExtBa=12.00
08/06/2021,17:34:31,TEMP=16.8,BA=5.60,STAT.A,ExtBa=12.00
08/06/2021,17:48:24,TEMP=16.8,BA=5.68,STAT.D,ExtBa=12.00
08/06/2021,17:50:24,TEMP=17.3,BA=5.60,STAT.A,ExtBa=12.00
08/06/2021,18:01:08,TEMP=16.9,BA=5.68,STAT.A,ExtBa=12.00
08/06/2021,18:11:42,TEMP=17.0,BA=5.68,STAT.C,ExtBa=12.00
08/06/2021,18:20:56,TEMP=16.9,BA=5.68,STAT.A,ExtBa=12.00
08/06/2021,18:29:05,TEMP=16.9,BA=5.68,STAT.A,ExtBa=12.00
08/06/2021,18:36:21,TEMP=16.8,BA=5.56,STAT.A,ExtBa=12.00
08/06/2021,18:42:52,TEMP=16.8,BA=5.68,STAT.A,ExtBa=12.00
08/06/2021,18:48:44,TEMP=16.7,BA=5.68,STAT.B,ExtBa=12.00
08/06/2021,19:00:24,TEMP=16.5,BA=5.68,STAT.D,ExtBa=12.00
08/06/2021,19:02:24,TEMP=16.9,BA=5.68,STAT.A,ExtBa=12.00
08/06/2021,19:11:18,TEMP=16.3,BA=5.68,STAT.A,ExtBa=12.00
08/06/2021,19:19:38,TEMP=16.0,BA=5.68,STAT.A,ExtBa=12.00
08/06/2021,19:26:38,TEMP=15.9,BA=5.60,STAT.A,ExtBa=12.00
08/06/2021,19:32:37,TEMP=15.8,BA=5.68,STAT.A,ExtBa=12.00
08/06/2021,19:37:48,TEMP=15.7,BA=5.68,STAT.A,ExtBa=12.00